Tracking 25709 objects as of 23-May-2022
HD Live streaming from Space Station
objects crossing your sky now

COSMOS 2251 DEB

Track COSMOS 2251 DEB now!
10-day predictions


NORAD ID: 34550
Int'l Code: 1993-036UL
Perigee: 663.9 km
Apogee: 914.8 km
Inclination: 74.0 °
Period: 100.5 minutes
Semi major axis: 7160 km
RCS: 0.0083 m2 (small)
Launch date: June 16, 1993
Source: Commonwealth of Independent States (former USSR) (CIS)
Launch site: PLESETSK MISSILE AND SPACE COMPLEX (PKMTR)

Note: This is SATELLITE DEBRIS
aabbcc
Your satellite tracking list
Your tracking list is empty




NASA's NSSDC Master Catalog

Two Line Element Set (TLE):
1 34550U 93036UL  22142.60097246  .00017282  00000-0  53349-2 0  9999
2 34550  73.9924 331.1953 0175148  89.1630 272.9584 14.32851917685402
Source of the keplerian elements: AFSPC